Zurück zum Katalog

STARLINK-32653

AktivKommunikationVLEO
NORAD 62199·PAYLOAD·🇺🇸 United States

Gestartet Dec 4, 2024 von Cape Canaveral Space Force Station

Loading…

Nächste Überflüge (nächste 24 Stunden)

TLE

AktuellSource: CelesTrak SupGP

Epoche: Sep 14, 2026, 22:25 UTC

1 62199C 24229H   26257.93451389  .00034031  00000+0  12326-2 0  2573
2 62199  42.9995 275.0854 0001414 267.1708  63.7948 15.27560732    15

Verfolge STARLINK-32653 in Echtzeit mit AllMySat

Download on the App Store